Location: Newark
(45.9167°N, 5.5000°E)
Time: 23:04:22
(UTC+00:00)

N. Korean satellite - Pass Details

Date: 02 February 2020
Orbit: 456 x 505 km, 97.2° (Epoch: 19 February)

Event Time Altitude Azimuth Distance (km) Brightness Sun altitude
Rises 05:24:55 0° 13° (NNE) 2,568 10.3 -16.7°
Reaches altitude 10° 05:26:59 10° 15° (NNE) 1,690 9.4 -16.3°
Maximum altitude 05:30:37 76° 101° (E) 517 6.7 -15.7°
Drops below altitude 10° 05:34:17 10° 188° (S) 1,699 9.3 -15.1°
Sets 05:36:22 0° 190° (S) 2,583 10.3 -14.7°
